Regional Weather Roundup
Issued by NWS

Home | Current Version | Previous Version | Graphics & Text | Print | Product List | Glossary On
Versions: 1 2 3 4 5 6 7 8 9 10 11 12 13 14 15 16 17 18 19 20 21 22 23 24 25 26 27 28 29 30 31 32 33 34 35 36 37 38 39 40 41 42 43 44 45 46 47 48 49 50
000
ASUS43 KOAX 211502
RWRNE

WEATHER ROUNDUP FOR NEBRASKA
NATIONAL WEATHER SERVICE OMAHA NE
1000 AM CDT SAT APR 21 2018

NOTES: SATELLITE DATA IS BEING USED TO AUGMENT CLOUD COVER ABOVE
       12000 FEET.
       "FAIR" INDICATES FEW OR NO CLOUDS BELOW 12,000 FEET WITH NO
       SIGNIFICANT WEATHER AND/OR OBSTRUCTIONS TO VISIBILITY.


NEZ001>004-019>022-054>056-211600-
NEBRASKA PANHANDLE

CITY           SKY/WX    TMP DP  RH WIND       PRES   REMARKS
SCOTTSBLUFF    LGT SNOW  35 N/A N/A E5        30.22S WCI  31
ALLIANCE       LGT SNOW  33  33 100 SE5       30.21S FOG     WCI  29
CHADRON        CLOUDY    40  35  83 S7        30.23S
GORDON         RAIN      38  36  92 SE6       30.23S WCI  33
KIMBALL        LGT SNOW  33  33 100 E5        30.19S WCI  28
SIDNEY         LGT SNOW  34  33  96 E7        30.20S FOG     WCI  28
$$

NEZ057>060-069>072-079>082-211600-
SOUTHWEST NEBRASKA

CITY           SKY/WX    TMP DP  RH WIND       PRES   REMARKS
NORTH PLATTE   LGT RAIN  41  39  93 E9        30.24F
IMPERIAL       CLOUDY    39  38  96 E10       30.21S WCI  32
LEXINGTON      DRIZZLE   42  39  92 NE6       30.24F
MCCOOK         CLOUDY    41  40  96 NE10      30.21F FOG
OGALLALA       LGT RAIN  38  37  95 E7        30.23S WCI  32
$$

NEZ005>010-023>029-035>040-094-211600-
NORTH CENTRAL NEBRASKA

CITY           SKY/WX    TMP DP  RH WIND       PRES   REMARKS
VALENTINE      CLOUDY    41  38  89 SE8       30.29R
AINSWORTH      DRIZZLE   39  38  99 CALM      30.29F
BROKEN BOW     LGT RAIN  41  38  89 N13       30.24F
O`NEILL        CLOUDY    44  38  80 NE7       30.31F
ORD            CLOUDY    43  38  82 NE5       30.25S
THEDFORD       LGT RAIN  38  37  92 SE8       30.28S WCI  33
$$

NEZ041-046>049-061>064-073>077-083>087-211600-
SOUTH CENTRAL NEBRASKA

CITY           SKY/WX    TMP DP  RH WIND       PRES   REMARKS
GRAND ISLAND   CLOUDY    43  38  82 E6        30.26S
AURORA         CLOUDY    43  36  78 E7        30.26R
HASTINGS       CLOUDY    42  38  85 E7        30.25S
HEBRON         LGT RAIN  45  41  86 E7        30.25S
HOLDREGE       DRIZZLE   41  40  98 NE9       30.23S
YORK             N/A     45  37  76 SE12      30.27S
$$

NEZ011>018-030>034-042>045-211600-
NORTHEAST NEBRASKA

CITY           SKY/WX    TMP DP  RH WIND       PRES   REMARKS
NORFOLK        CLOUDY    47  34  60 NE12      30.26F
ALBION         CLOUDY    46  34  63 E8        30.27F
BLAIR          CLOUDY    48  30  49 E7        30.28F
COLUMBUS       CLOUDY    46  32  58 E14       30.28F
FREMONT        CLOUDY    49  32  51 E7        30.29F
TEKAMAH        CLOUDY    49  30  48 E6        30.31S
WAYNE          CLOUDY    44  36  73 NE5       30.31F
$$

NEZ050>053-065>068-078-088>093-211600-
SOUTHEAST NEBRASKA

CITY           SKY/WX    TMP DP  RH WIND       PRES   REMARKS
LINCOLN        LGT RAIN  47  35  63 S8        30.29F
OMAHA EPPLEY   CLOUDY    50  29  44 CALM      30.29F
BEATRICE       LGT RAIN  44  42  91 W3        30.28S
FALLS CITY     CLOUDY    48  35  60 NE3       30.25F
NEBRASKA CITY  CLOUDY    49  35  58 N5        30.25F
PLATTSMOUTH    CLOUDY    49  28  45 E6        30.28S
$$

NEZ044-045-051>053-067-211600-
OMAHA AREA

CITY           SKY/WX    TMP DP  RH WIND       PRES   REMARKS
OMAHA EPPLEY   CLOUDY    50  29  44 CALM      30.29F
BLAIR          CLOUDY    48  30  49 E7        30.28F
FREMONT        CLOUDY    49  32  51 E7        30.29F
MILLARD        CLOUDY    50  30  45 NE3       30.29F
OFFUTT AFB     CLOUDY    50  28  43 NE7       30.27F
PLATTSMOUTH    CLOUDY    49  28  45 E6        30.28S
WAHOO          CLOUDY    50  25  36 E7        30.29S
$$



USA.gov is the U.S. government's official web portal to all federal, state and local government web resources and services.